This demonstration page uses our WeatherBlox Daily Observations layout. Learn more.

Left ArrowRight Arrow

38.20091, -84.87328

Hourly Observations for September 13, 2021

Temp ( °F °C ) Dew Point ( °F °C ) Humidity (%) Winds ( mph kmh ) Pressure ( in mb ) Visibility ( mi km ) Precip ( " mm )
12:53 am 00:53 Clear 72 22.2 67 19.4 84 84 SW 6 9 30.16 1021 10 16 0.00 0.00
1:53 am 01:53 Clear 72 22.2 67 19.4 84 84 SW 8 13 30.15 1021 10 16 0.00 0.00
2:53 am 02:53 Clear 72 22.2 67 19.4 84 84 Calm 30.16 1021 10 16 0.00 0.00
3:53 am 03:53 Clear 69 20.6 66 18.9 90 90 SSW 3 6 30.17 1022 10 16 0.00 0.00
4:53 am 04:53 Clear 67 19.4 65 18.3 93 93 Calm 30.17 1022 10 16 0.00 0.00
5:53 am 05:53 Clear 68 20 66 18.9 93 93 S 3 6 30.17 1022 10 16 0.00 0.00
6:53 am 06:53 Clear with Mist and Fog 65 18.3 64 17.8 97 97 Calm 30.19 1022 6 10 0.00 0.00
7:53 am 07:53 Sunny with Mist and Fog 65 18.3 63 17.2 93 93 Calm 30.21 1023 6 10 0.00 0.00
8:53 am 08:53 Sunny 70 21.1 67 19.4 90 90 SSW 7 11 30.21 1023 10 16 0.00 0.00
9:53 am 09:53 Sunny 74 23.3 69 20.6 85 85 WSW 6 9 30.20 1023 10 16 0.00 0.00
10:53 am 10:53 Sunny 78 25.6 70 21.1 76 76 SW 8 13 30.20 1023 10 16 0.00 0.00
11:53 am 11:53 Mostly Sunny 81 27.2 70 21.1 69 69 W 10 17 30.19 1022 10 16 0.00 0.00
12:53 pm 12:53 Partly Cloudy 83 28.3 69 20.6 63 63 SW 10 17 30.16 1021 10 16 0.00 0.00
1:53 pm 13:53 Mostly Sunny 83 28.3 68 20 61 61 SW 8 13 30.14 1021 10 16 0.00 0.00
2:53 pm 14:53 Partly Cloudy 85 29.4 67 19.4 55 55 WSW 7 11 30.13 1020 10 16 0.00 0.00
3:53 pm 15:53 Partly Cloudy 86 30 68 20 55 55 VRB 6 9 30.11 1020 10 16 0.00 0.00
4:53 pm 16:53 Mostly Sunny 85 29.4 67 19.4 55 55 SW 7 11 30.09 1019 10 16 0.00 0.00
5:53 pm 17:53 Sunny 85 29.4 68 20 57 57 SSW 3 6 30.08 1019 10 16 0.00 0.00
6:53 pm 18:53 Sunny 83 28.3 68 20 61 61 S 6 9 30.07 1018 10 16 0.00 0.00
7:53 pm 19:53 Clear 77 25 69 20.6 77 77 S 5 7 30.06 1018 10 16 0.00 0.00
8:53 pm 20:53 Clear 75 23.9 68 20 79 79 Calm 30.06 1018 10 16 0.00 0.00
9:53 pm 21:53 Clear 72 22.2 68 20 87 87 SSW 3 6 30.06 1018 10 16 0.00 0.00
10:53 pm 22:53 Clear 71 21.7 67 19.4 87 87 Calm 30.06 1018 10 16 0.00 0.00
11:53 pm 23:53 Clear 70 21.1 67 19.4 90 90 Calm 30.07 1018 10 16 0.00 0.00

Powered by AerisWeather